Location: Newark
(21.1200°N, 73.4000°E)
Time: 15:37:45
(UTC+00:00)

Courier 1B Rocket - Pass Details

Date: 18 January 2020
Orbit: 920 x 1202 km, 28.2° (Epoch: 24 February)

Event Time Altitude Azimuth Distance (km) Brightness Sun altitude
Rises 12:33:45 0° 289° (WNW) 3,568 8.8 2.1°
Reaches altitude 10° 12:36:28 10° 294° (WNW) 2,611 8.0 1.5°
Maximum altitude 12:42:29 49° 9° (N) 1,163 5.3 0.2°
Drops below altitude 10° 12:48:34 10° 84° (E) 2,635 6.7 -1.1°
Sets 12:51:19 0° 89° (E) 3,605 7.4 -1.7°
Enters shadow 12:51:27 - 90° (E) 3,655 7.4 -1.8°
